Simultaneous Nadir Overpasses (SNOs) Predictions

Prediction of SNOs between NOAA-20 and METOP-C Satellite Orbit:

Table of predicted SNOs for the next 14.0 days since TLE Epoch: 11/22/2025
Index Date (NOAA-20) Time (NOAA-20) Lat,Lon (NOAA-20) SZA (NOAA-20 ) Date (METOP-C) Time (METOP-C) Lat,Lon (METOP-C) SZA (METOP-C ) Distance(km) Time Diff (sec)
1 11/26/2025 08:53:35 73.45, 36.86 94.47 11/26/2025 08:54:41 73.41, 39.88 94.36 95.83 66
2 11/26/2025 09:44:18 -73.42,-155.74 85.56 11/26/2025 09:45:24 -73.37,-152.88 85.68 91.12 66
3 11/26/2025 10:34:59 73.15, 12.16 94.17 11/26/2025 10:36:09 73.09, 13.82 94.06 54.08 70
4 11/26/2025 11:25:42 -73.12, 179.56 85.87 11/26/2025 11:26:52 -73.05,-178.93 85.98 49.60 70
5 11/26/2025 12:16:23 72.85, -12.56 93.86 11/26/2025 12:17:36 72.81, -12.10 93.80 15.47 73
6 11/26/2025 13:07:06 -72.81, 154.83 86.17 11/26/2025 13:08:19 -72.78, 155.15 86.23 11.37 73
7 11/26/2025 13:57:50 72.69, -37.61 93.71 11/26/2025 13:59:00 72.68, -37.70 93.70 3.16 70
8 11/26/2025 14:48:34 -72.71, 129.67 86.27 11/26/2025 14:49:42 -72.70, 129.66 86.29 1.17 68
9 11/26/2025 15:39:20 72.69, -62.98 93.72 11/26/2025 15:40:21 72.71, -62.98 93.74 2.18 61
10 11/26/2025 16:30:04 -72.71, 104.30 86.26 11/26/2025 16:31:03 -72.73, 104.38 86.25 3.32 59
11 11/26/2025 17:20:50 72.69, -88.35 93.73 11/26/2025 17:21:43 72.69, -88.37 93.73 0.63 53
12 11/26/2025 18:11:34 -72.71, 78.93 86.25 11/26/2025 18:12:25 -72.71, 78.99 86.25 2.08 51
13 11/26/2025 19:02:20 72.69,-113.73 93.75 11/26/2025 19:03:05 72.66,-113.76 93.72 2.94 45
14 11/26/2025 19:53:04 -72.71, 53.55 86.23 11/26/2025 19:53:47 -72.68, 53.60 86.26 3.13 43
15 11/26/2025 20:43:50 72.69,-139.10 93.76 11/26/2025 20:44:26 72.69,-139.04 93.76 1.91 36
16 11/26/2025 21:34:33 -72.65, 28.29 86.28 11/26/2025 21:35:09 -72.66, 28.21 86.27 2.47 36
17 11/26/2025 22:25:20 72.69,-164.47 93.77 11/26/2025 22:25:48 72.67,-164.43 93.75 2.38 28
18 11/26/2025 23:16:03 -72.65, 2.92 86.26 11/26/2025 23:16:31 -72.64, 2.83 86.28 3.53 28
19 11/27/2025 00:06:49 72.63, 170.26 93.73 11/27/2025 00:07:10 72.65, 170.18 93.74 2.92 21
20 11/27/2025 00:57:33 -72.65, -22.46 86.25 11/27/2025 00:57:52 -72.66, -22.46 86.24 1.26 19
21 11/27/2025 01:48:19 72.63, 144.89 93.74 11/27/2025 01:48:32 72.62, 144.79 93.73 3.41 13
22 11/27/2025 02:39:03 -72.65, -47.83 86.24 11/27/2025 02:39:14 -72.64, -47.84 86.25 1.27 11
23 11/27/2025 03:29:49 72.63, 119.52 93.75 11/27/2025 03:29:53 72.65, 119.51 93.77 1.98 4
24 11/27/2025 04:20:33 -72.65, -73.20 86.23 11/27/2025 04:20:35 -72.67, -73.13 86.21 3.16 2
25 11/27/2025 05:11:19 72.63, 94.15 93.76 11/27/2025 05:11:15 72.63, 94.12 93.76 0.90 4
26 11/27/2025 06:02:03 -72.65, -98.57 86.22 11/27/2025 06:01:57 -72.64, -98.51 86.22 1.94 6
27 11/27/2025 06:52:49 72.63, 68.77 93.77 11/27/2025 06:52:37 72.60, 68.74 93.75 3.22 12
28 11/27/2025 07:43:33 -72.65,-123.94 86.21 11/27/2025 07:43:19 -72.62,-123.90 86.23 3.13 14
29 11/27/2025 08:34:19 72.63, 43.40 93.79 11/27/2025 08:33:58 72.63, 43.45 93.79 1.69 21
30 11/27/2025 09:25:02 -72.59,-149.21 86.25 11/27/2025 09:24:41 -72.60,-149.29 86.24 2.59 21
31 11/27/2025 10:15:49 72.63, 18.03 93.80 11/27/2025 10:15:20 72.61, 18.07 93.78 2.51 29
32 11/27/2025 11:06:32 -72.59,-174.58 86.24 11/27/2025 11:06:02 -72.63,-174.57 86.20 3.62 30
33 11/27/2025 11:57:18 72.57, -7.24 93.75 11/27/2025 11:56:42 72.58, -7.32 93.77 2.96 36
34 11/27/2025 12:48:02 -72.59, 160.04 86.23 11/27/2025 12:47:24 -72.60, 160.04 86.21 1.18 38
35 11/27/2025 13:38:48 72.57, -32.61 93.77 11/27/2025 13:38:04 72.56, -32.71 93.76 3.64 44
36 11/27/2025 14:29:32 -72.59, 134.67 86.21 11/27/2025 14:28:46 -72.58, 134.65 86.22 1.42 46
37 11/27/2025 15:20:18 72.57, -57.98 93.78 11/27/2025 15:19:25 72.59, -57.99 93.80 1.73 53
38 11/27/2025 16:11:02 -72.59, 109.30 86.20 11/27/2025 16:10:07 -72.61, 109.37 86.18 3.00 55
39 11/27/2025 17:01:48 72.57, -83.35 93.79 11/27/2025 17:00:47 72.56, -83.38 93.79 1.18 61
40 11/27/2025 17:52:32 -72.59, 83.93 86.19 11/27/2025 17:51:29 -72.58, 83.98 86.19 1.86 63
41 11/27/2025 18:43:18 72.57,-108.73 93.80 11/27/2025 18:42:08 72.59,-108.66 93.83 3.17 70
42 11/27/2025 19:34:02 -72.59, 58.56 86.18 11/27/2025 19:32:51 -72.56, 58.60 86.20 3.21 71
43 11/27/2025 20:24:46 72.47,-133.89 93.70 11/27/2025 20:23:32 72.46,-134.26 93.72 12.22 74
44 11/27/2025 21:15:29 -72.43, 33.49 86.33 11/27/2025 21:14:15 -72.43, 33.01 86.31 16.35 74
45 11/27/2025 22:06:10 72.16,-158.66 93.40 11/27/2025 22:05:00 72.13,-160.24 93.42 54.12 70
46 11/27/2025 22:56:53 -72.13, 8.72 86.64 11/27/2025 22:55:43 -72.10, 7.02 86.61 58.04 70
47 11/27/2025 23:47:34 71.85, 176.55 93.09 11/27/2025 23:46:27 71.85, 173.89 93.17 92.46 67
48 11/28/2025 00:38:17 -71.82, -16.07 86.94 11/28/2025 00:37:11 -71.77, -18.94 86.91 99.78 66



Historial Predications of SNOs between NOAA-20 and METOP-C
